Regional Weather Roundup
Issued by NWS

Home | Current Version | Previous Version | Text Only | Print | Product List | Glossary On
Versions: 1 2 3 4 5 6 7 8 9 10 11 12 13 14 15 16 17 18 19 20 21 22 23 24 25 26 27 28 29 30 31 32 33 34 35 36 37 38 39 40 41 42 43 44 45 46 47 48 49 50
000
ASUS45 KBOU 122307
RWRCO

WEATHER ROUNDUP FOR COLORADO
NATIONAL WEATHER SERVICE DENVER/BOULDER CO
400 PM MST FRI FEB 12 2016

NOTE: "FAIR" INDICATES FEW OR NO CLOUDS BELOW 12000 FEET WITH NO
SIGNIFICANT WEATHER AND/OR OBSTRUCTIONS TO VISIBILITY.

COZ001>005-013-030-031-130000-
...NORTHWEST COLORADO...

CITY           SKY/WX    TMP DP  RH WIND       PRES   REMARKS
CRAIG          FAIR      32  25  75 SW3       30.33F
HAYDEN         FAIR      32  21  64 CALM      30.33S
MEEKER         FAIR      43  25  49 CALM      30.31F
MOUNT WERNER   NOT AVBL
STEAMBOAT SPGS FAIR      36  21  55 CALM      30.34S
WALDEN         FAIR      43  21  42 S10       30.34S
$$

COZ006>008-011-130000-
...WEST CENTRAL VALLEYS...

CITY           SKY/WX    TMP DP  RH WIND       PRES   REMARKS
GRAND JUNCTION FAIR      45  32  60 N5        30.33F
MONTROSE       FAIR      51  25  36 CALM      30.34F
EAGLE          SUNNY     48  21  34 CALM      30.35F
RIFLE          FAIR      46  19  34 CALM      30.34S
DELTA          FAIR      55  26  31 SW5       30.33F
NUCLA          FAIR      54  27  35 CALM      30.37F
$$

COZ017>023-064>068-130000-
...SOUTHWEST COLORADO...

CITY           SKY/WX    TMP DP  RH WIND       PRES   REMARKS
DURANGO        FAIR      48  23  37 E7        30.35S
CORTEZ         FAIR      55  20  25 E5        30.34F
PAGOSA SPRINGS FAIR      55  18  23 S6        30.38S
TELLURIDE      FAIR      50  18  28 W14       30.44S
WOLF CREEK PAS FAIR      37  16  41 SW10      30.57S
$$

COZ009-010-012-014-032>034-037-058>063-130000-
...CENTRAL COLORADO...

CITY           SKY/WX    TMP DP  RH WIND       PRES   REMARKS
ASPEN          FAIR      47  22  37 NW3       30.36R
BUENA VISTA    FAIR      56  18  22 S3        30.32S
COPPER MTN     FAIR      39  18  41 W23G37    30.50R
BERTHOUD PASS  FAIR      30  19  64 NW26G35   30.47R WCI  16
COTTONWOOD PAS FAIR      52  12  20 SE3       30.41S
GUNNISON       FAIR      19  10  68 CALM      30.49S
KREMMLING      FAIR      28  16  59 CALM      30.40S
LEADVILLE      FAIR      44  18  35 NW15G22   30.41R
MONARCH PASS   FAIR      36  18  48 SW17G29   30.61S
SALIDA         NOT AVBL
SUNLIGHT       FAIR      43  25  49 CALM      30.50S
WILKERSON PASS FAIR      41  18  38 CALM      30.49R
$$

COZ069>075-130000-
...SAN LUIS VALLEY/SANGRE DE CRISTO MOUNTAINS...

CITY           SKY/WX    TMP DP  RH WIND       PRES   REMARKS
ALAMOSA        FAIR      55  18  23 VRB3      30.36S
LA VETA PASS   FAIR      45  19  36 S12G17    30.45S
SAGUACHE       FAIR      50  18  27 S7        30.39S
$$

COZ035-036-038>040-130000-
...NORTHERN COLORADO FRONT RANGE...

CITY           SKY/WX    TMP DP  RH WIND       PRES   REMARKS
DENVER INTL AP FAIR      48  32  53 E10       30.23F
DMNS CITY PARK   N/A     51  31  45 NE7G16    30.23S
AURORA         MOSUNNY   53  35  51 NE7       30.24S
FRONT RANGE AP MOSUNNY   46  32  57 MISG      30.24S
ERIE MUNI ARPT FAIR      50  33  50 NE3       30.23S
BOULDER MUN AP FAIR      48  32  53 CALM      30.24R
CENTENNIAL     FAIR      56  32  40 N7        30.23S
BROOMFIELD     MOSUNNY   48  28  46 W3        30.24F
FORT COLLINS   FAIR      46  28  49 SE7       30.26S
LONGMONT       FAIR      52  32  45 E6        30.26R
$$

COZ041-046-047-076>085-087-088-130000-
...PIKES PEAK/PALMER DIVIDE AND SOUTHERN FOOTHILLS...

CITY           SKY/WX    TMP DP  RH WIND       PRES   REMARKS
COLO. SPRINGS  FAIR      54  27  35 SE9       30.26S
A. F. ACADEMY  FAIR      53  29  39 S7        30.26R
SCHRIEVER AFB  FAIR      55  28  34 S10       30.26S
ELLICOTT       FAIR     N/A N/A N/A SE8       30.25R
FALCON         FAIR      52  28  40 S6        30.29R
FORT CARSON    FAIR      56  31  38 E6        30.24R
LIMON          FAIR      53  32  44 S9        30.24S
MONUMENT HILL  FAIR      41  30  65 SE6       30.29R
TRINIDAD       FAIR      67  18  15 SE13      30.24R
$$

COZ042>045-048>051-090-091-130000-
...NORTHEAST COLORADO...

CITY           SKY/WX    TMP DP  RH WIND       PRES   REMARKS
GREELEY ARPT   FAIR      48  34  57 SE6       30.25R
AKRON          FAIR      39  33  79 E20       30.26F
BURLINGTON     FAIR      38  32  79 E18       30.30R
WRAY           CLOUDY    35  32  88 E13       30.34S WCI  26
STERLING       FAIR      41  34  75 E9        30.28F
HOLYOKE        CLOUDY    34  32  93 E9        30.35S FOG     WCI  26
FORT MORGAN    FAIR      44  33  64 E16       30.26S
$$

COZ086-089-092>099-130000-
...SOUTHEAST COLORADO...

CITY           SKY/WX    TMP DP  RH WIND       PRES   REMARKS
PUEBLO         FAIR      65  26  23 E13       30.19R
LA JUNTA       FAIR      66  29  24 E12       30.19F
LAMAR          FAIR      65  28  24 SE20G25   30.21R
SPRINGFIELD      N/A     60  25  26 SE20G26   30.25S
$$



USA.gov is the U.S. government's official web portal to all federal, state and local government web resources and services.